FW7258 Weather Reports


time (UTC)temp
C
wind
direction
speed
KPH
gust
KPH
rain 1hr
cm
rain 24hr
cm
rain mn
cm
humidity
%
barometer
mb
20260510065818 12 352 3.2 4.8 0.00 1.73 0.00 82 1010.9
20260510064916 12 360 0.0 0.0 0.00 1.78 0.00 82 1010.9
20260510063918 12 360 0.0 0.0 0.00 1.78 0.00 82 1010.8
20260510063016 12 360 0.0 0.0 0.00 1.80 0.00 82 1010.9
20260510061018 12 23 6.4 8.0 0.00 1.85 0.00 83 1010.9
20260510060018 12 17 11.3 16.1 0.00 1.88 0.00 83 1010.9
20260510054116 12 182 1.6 4.8 0.00 1.93 0.00 82 1010.3
20260510053117 12 180 3.2 4.8 0.00 1.96 0.00 82 1010.2
20260510051215 12 180 4.8 6.4 0.00 2.03 0.00 82 1009.9
20260510050219 12 210 1.6 4.8 0.00 2.08 0.00 82 1009.7
20260510045217 12 180 6.4 8.0 0.03 2.08 0.00 82 1009.6
20260510043234 12 180 3.2 4.8 0.10 2.13 0.00 82 1009.7
20260510042216 12 180 4.8 4.8 0.13 2.13 0.00 81 1009.9
20260510041315 12 156 3.2 4.8 0.13 2.13 0.00 81 1010.0
20260510040319 12 189 4.8 6.4 0.13 2.18 0.00 80 1010.1
20260510035326 12 157 0.0 3.2 0.10 2.16 2.16 81 1010.0
20260510034325 12 214 8.0 12.9 0.13 2.13 2.13 81 1010.4
20260510033326 12 194 3.2 4.8 0.10 2.08 2.08 81 1010.2
20260510032328 12 184 1.6 4.8 0.08 2.08 2.06 81 1010.0
20260510031426 12 177 4.8 6.4 0.08 2.08 2.06 80 1009.9
20260510025427 12 244 3.2 6.4 0.10 2.13 2.06 81 1009.8
20260510023425 12 215 4.8 6.4 0.05 2.11 1.98 82 1009.3
20260510023326 12 205 4.8 8.0 0.03 2.08 1.98 82 1009.2
20260510022425 12 180 4.8 6.4 0.03 2.11 1.98 82 1009.2
20260510020442 12 180 4.8 6.4 0.00 2.11 1.96 81 1009.1
20260510015427 12 180 3.2 3.2 0.00 2.11 1.96 81 1009.0
20260510014526 12 180 1.6 3.2 0.00 2.13 1.96 81 1009.0
20260510012527 12 157 1.6 4.8 0.00 2.16 1.96 80 1008.8
20260510011526 12 190 3.2 4.8 0.03 2.21 1.96 80 1008.8
20260510010526 12 180 3.2 6.4 0.08 2.21 1.96 80 1008.6
20260510005527 12 162 4.8 8.0 0.18 2.24 1.96 80 1008.6
20260510004625 12 181 1.6 4.8 0.41 2.26 1.96 80 1008.7
20260510002644 12 219 4.8 9.7 1.02 2.31 1.96 80 1008.5
20260510001725 12 269 1.6 4.8 0.99 2.31 1.93 80 1008.9
20260510000742 12 329 3.2 4.8 0.94 2.34 1.88 80 1009.1
20260509235825 12 297 8.0 12.9 0.86 2.31 1.80 79 1009.0
20260509234827 13 315 9.7 20.9 0.71 2.18 1.65 79 1008.5
20260509233826 15 312 9.7 19.3 0.28 1.75 1.19 70 1008.4
20260509232826 18 305 11.3 16.1 0.00 1.45 0.94 55 1007.6
20260509231828 19 212 6.4 16.1 0.00 1.45 0.94 53 1006.4
20260509230827 19 189 9.7 17.7 0.00 1.45 0.94 53 1006.2
20260509224828 19 191 11.3 22.5 0.00 1.45 0.94 51 1006.0
20260509223925 20 179 8.0 20.9 0.00 1.45 0.94 51 1005.8
20260509222925 20 190 9.7 20.9 0.00 1.50 0.94 51 1006.1
20260509221926 20 212 11.3 16.1 0.00 1.50 0.94 50 1006.0
20260509221025 20 180 6.4 9.7 0.00 1.50 0.94 49 1006.1
20260509220027 20 187 11.3 16.1 0.00 1.50 0.94 48 1006.1
20260509215927 20 198 8.0 16.1 0.00 1.50 0.94 48 1006.0
20260509215025 20 176 14.5 24.1 0.00 1.50 0.94 49 1006.1
20260509214043 20 179 8.0 11.3 0.00 1.50 0.94 50 1006.0
20260509213128 20 192 11.3 17.7 0.00 1.50 0.94 50 1006.1
20260509211126 20 191 8.0 22.5 0.00 1.50 0.94 49 1006.3
20260509210127 20 212 6.4 11.3 0.00 1.50 0.94 51 1006.4
20260509204225 19 181 9.7 19.3 0.00 1.57 0.94 52 1006.7
20260509201424 19 207 4.8 8.0 0.00 1.60 0.94 52 1006.9
20260509200427 19 178 14.5 24.1 0.00 1.60 0.94 54 1007.0
20260509193527 19 196 3.2 8.0 0.00 1.60 0.94 53 1007.4
20260509192525 19 182 16.1 22.5 0.00 1.60 0.94 52 1007.8
20260509191527 19 194 8.0 19.3 0.00 1.60 0.94 54 1008.0
20260509190528 18 183 8.0 16.1 0.00 1.60 0.94 54 1008.0
20260509184527 18 204 11.3 20.9 0.00 1.60 0.94 55 1008.0
20260509183526 18 191 9.7 14.5 0.00 1.60 0.94 56 1008.2
20260509182625 18 259 6.4 14.5 0.00 1.60 0.94 57 1008.2
20260509181625 17 177 11.3 19.3 0.00 1.60 0.94 59 1008.2
20260509175627 18 182 9.7 17.7 0.00 1.60 0.94 59 1008.2
20260509174626 17 239 6.4 9.7 0.00 1.63 0.94 61 1008.4
20260509172626 17 197 6.4 8.0 0.00 1.63 0.94 62 1008.3
20260509171627 16 201 8.0 17.7 0.00 1.63 0.94 63 1008.2
20260509165625 16 277 8.0 17.7 0.00 1.63 0.94 62 1008.6
20260509164725 16 172 6.4 11.3 0.00 1.63 0.94 65 1008.6
20260509163728 16 193 3.2 11.3 0.00 1.63 0.94 64 1008.7
20260509162726 16 209 6.4 16.1 0.03 1.63 0.94 67 1008.7
20260509161726 16 154 4.8 9.7 0.03 1.63 0.94 68 1008.8
20260509160725 16 187 6.4 11.3 0.03 1.63 0.94 69 1008.8
20260509154741 15 175 6.4 11.3 0.03 1.63 0.94 73 1008.8
20260509153825 15 205 9.7 16.1 0.03 1.63 0.94 75 1008.7
20260509152825 14 177 8.0 11.3 0.00 1.60 0.91 76 1008.7
20260509151925 13 252 4.8 9.7 0.00 1.60 0.91 77 1008.8
20260509145942 13 198 1.6 4.8 0.00 1.60 0.91 79 1008.7
20260509144924 13 159 6.4 8.0 0.00 1.60 0.91 80 1008.8
20260509143926 13 180 3.2 6.4 0.00 1.60 0.91 80 1008.8
20260509142025 12 157 3.2 4.8 0.00 1.60 0.91 81 1008.7
20260509140026 12 234 0.0 3.2 0.00 1.60 0.91 82 1008.6
20260509135024 12 245 3.2 6.4 0.00 1.60 0.91 82 1008.7
20260509134024 12 158 6.4 14.5 0.00 1.60 0.91 82 1008.6
20260509133042 12 195 1.6 3.2 0.00 1.60 0.91 82 1008.8
20260509132026 11 160 1.6 3.2 0.00 1.60 0.91 82 1008.7
20260509131125 11 182 3.2 6.4 0.00 1.63 0.91 82 1008.7
20260509125125 11 202 1.6 3.2 0.00 1.63 0.91 83 1009.0
20260509124124 11 248 1.6 6.4 0.00 1.63 0.91 81 1009.1
20260509124027 11 228 6.4 9.7 0.00 1.63 0.91 81 1009.1
20260509122125 11 189 3.2 8.0 0.00 1.63 0.91 83 1009.1
20260509121126 11 180 4.8 6.4 0.00 1.63 0.91 82 1009.1
20260509120125 11 233 1.6 6.4 0.00 1.63 0.91 82 1009.2
20260509115126 11 225 1.6 1.6 0.00 1.63 0.91 83 1009.2
20260509114140 11 180 3.2 4.8 0.00 1.63 0.91 82 1009.1
20260509113142 11 185 4.8 8.0 0.00 1.63 0.91 82 1009.1
20260509112224 11 157 3.2 4.8 0.00 1.63 0.91 83 1009.1
20260509111324 11 181 3.2 6.4 0.00 1.63 0.91 83 1008.9
20260509110325 11 170 3.2 8.0 0.00 1.63 0.91 83 1008.7
20260509104424 11 173 1.6 3.2 0.00 1.63 0.91 83 1008.7
20260509103424 11 185 3.2 4.8 0.00 1.63 0.91 83 1008.8
20260509102441 11 163 3.2 6.4 0.00 1.63 0.91 83 1008.6
20260509101526 11 160 1.6 3.2 0.00 1.63 0.91 83 1008.7
20260509100524 11 201 1.6 3.2 0.00 1.63 0.91 83 1008.8
20260509095525 11 150 3.2 4.8 0.00 1.63 0.91 83 1008.8
20260509093623 11 180 3.2 4.8 0.05 1.63 0.91 83 1009.0
20260509092624 11 166 3.2 6.4 0.05 1.63 0.91 83 1009.1
20260509091642 11 180 0.0 3.2 0.08 1.63 0.91 83 1009.1
20260509084625 11 180 3.2 4.8 0.18 1.60 0.89 83 1009.4
20260509083624 11 163 4.8 8.0 0.20 1.57 0.86 83 1009.5
20260509082641 11 168 4.8 6.4 0.28 1.57 0.86 83 1009.5
20260509081725 11 165 6.4 8.0 0.30 1.55 0.84 83 1009.6
20260509075823 11 180 3.2 4.8 0.30 1.50 0.76 83 1009.7
20260509074842 11 180 1.6 4.8 0.30 1.45 0.71 83 1009.6
20260509073826 11 172 6.4 9.7 0.28 1.40 0.66 82 1009.4
20260509072842 10 181 4.8 8.0 0.20 1.32 0.58 83 1009.6
20260509070927 10 218 3.2 4.8 0.18 1.24 0.51 83 1009.8